Robertsdale, AL (36567)

9:10 PM CDT on August 30, 2016 (GMT -0500)
Elsanor-Robertsdale | | Change Station
Active Advisory: Coastal Flood Advisory

Elev 151 ft 30.58 °N, 87.56 °W | Updated 32 seconds ago

Clear
Clear
77.2 °F
Feels Like 79 °F
N
0.0
Wind Variable Wind from ENE
Gusts 0.0 mph

Today
High -- | Low -- °F
--% Chance of Precip.
Yesterday
High -- | Low -- °F
Precip. -- in
Pressure 29.90 in
Visibility 10.0 miles
Clouds Clear
Heat Index 79 °F
Dew Point 74 °F
Humidity 91%
Rainfall 0.00 in
Snow Depth Not available.
6:26 AM 7:15 PM
Waning Crescent, 2% visible
METAR KCQF 310155Z AUTO 00000KT 10SM CLR 25/25 A2990 RMK AO2
Pressure 29.90 in
Visibility 10.0 miles
Clouds Clear
Heat Index 79 °F
Dew Point 74 °F
Humidity 91%
Rainfall 0.00 in
Snow Depth Not available.
6:26 AM 7:15 PM
Waning Crescent, 2% visible
METAR KCQF 310155Z AUTO 00000KT 10SM CLR 25/25 A2990 RMK AO2

10-Day Weather Forecast

Almanac

Astronomy

Aug. 30, 2016 Rise Set
Actual Time
Civil Twilight
Nautical Twilight
Astronomical Twilight
Moon
Length of Visible Light
Length of Day
Tomorrow will be .
, % of the Moon is Illuminated

Today's Extremes

State Highs State Lows

Community

WunderPhotos

Upload Photos

1,935,985 photos uploaded!

WunderBlog® & News

Nearby

Air Quality

  Air Quality AQ Index Pollutant
Not available.

Snow Depth

Station Depth Elevation

Earthquake Activity

City Distance Mag. Time & Date
Minimum magnitude displayed is 2.5.

Coastal Water Temperatures

Place Temperature

Stations

Nearby Weather Stations

Station Location Temp. Windchill Dew Point Humidity Wind Precip. Elev Updated Type
                   

Watches & Warnings

Coastal Flood Advisory
Issued: 5:12 PM CDT Aug. 30, 2016 – National Weather Service

... Coastal Flood Advisory in effect until 7 PM CDT Thursday...

The National Weather Service in Mobile has issued a coastal Flood
Advisory... which is in effect until 7 PM CDT Thursday.

* Coastal flooding... water levels 1 to 2 feet above ground level
possible especially during high tide.

* Timing... through 7 PM Thursday evening.

* Impacts... minor flooding possible for all inland bays and sounds
and along all Gulf beaches for Alabama.

Precautionary/preparedness actions...

A coastal Flood Advisory indicates that strong easterly winds and
tides above predicated levels will combine to generate flooding of
low areas along the shore.